Probability
90 90 94 97 100 100 100 97 94 94 87 81 81 74 81 84 84 84 84 90 84 84 90 81 87 77 84 77 65 68 71 77 84 74 39 48 42 45 58 42 32 32 35
90 97 100 100 100 100 100 94 90 90 84 81 81 77 81 84 81 84 84 77 84 90 65 90 84 81 87 84 81 81 77 65 65 74 35 26 29 39 10 45 42 35 39
94 97 97 97 97 97 94 90 90 81 81 81 81 77 74 81 87 81 84 77 77 87 87 87 77 87 84 84 87 84 77 68 55 55 42 19 23 29 42 32 26 45 45
90 90 97 97 97 97 94 90 87 81 81 81 77 74 68 61 77 84 81 77 77 74 77 81 77 81 90 90 81 71 84 68 55 55 55 42 29 19 26 23 35 35 39
87 87 90 90 87 81 77 87 87 84 81 81 81 81 68 74 74 81 81 81 77 74 68 77 81 77 84 87 81 77 77 77 55 55 42 45 42 23 16 10 23 29 39
77 87 77 84 84 77 81 84 84 84 81 74 74 74 71 58 65 71 81 87 77 74 71 74 84 87 87 90 81 74 71 74 68 68 55 35 32 23 23 10 16 16 16
81 77 77 81 81 77 77 81 84 84 74 74 74 68 74 65 65 74 77 77 74 68 77 71 84 84 81 81 84 77 74 68 61 58 58 52 35 39 32 19 26 19 29
81 77 74 81 87 77 77 74 81 77 74 74 77 74 74 61 58 65 58 65 55 58 65 61 58 65 71 58 65 65 68 65 65 42 58 65 42 39 35 26 23 13 23
71 68 68 68 71 81 81 77 81 77 74 74 77 71 68 71 58 61 65 61 58 48 52 48 55 52 58 65 65 68 68 68 65 52 55 52 45 35 39 42 26 16 3
52 61 61 58 68 74 81 81 81 77 77 74 71 61 74 61 58 61 61 61 61 61 65 55 52 52 52 58 55 55 65 65 61 61 58 61 42 42 39 29 29 26 26
58 61 74 77 74 71 74 74 77 77 71 74 71 74 71 61 61 58 55 58 65 58 65 55 52 48 45 48 52 55 52 48 48 42 39 39 42 45 42 42 39 35 35
68 74 71 74 68 68 74 74 71 68 65 65 68 74 65 65 61 61 52 58 58 61 55 58 48 42 35 45 45 35 35 32 35 42 45 45 26 48 45 45 35 39 32
81 81 77 77 81 77 71 74 65 58 52 52 48 61 52 48 48 52 48 42 42 48 35 45 42 42 39 35 32 26 26 23 23 23 32 26 29 39 35 29 35 39 16
87 84 77 77 81 74 77 74 58 58 48 48 42 35 39 42 42 45 39 32 32 32 32 32 39 42 45 35 23 29 32 32 26 19 23 13 23 19 16 16 19 13 6
81 74 77 81 81 74 68 65 61 61 52 42 29 35 32 45 42 32 26 26 23 23 32 29 29 39 23 13 19 29 23 29 29 26 19 10 13 6 10 0 10 3 6
68 65 61 68 71 68 68 65 61 58 45 42 35 35 29 35 29 26 23 26 19 26 29 23 23 16 10 0 0 6 23 29 26 23 19 16 6 0 0 0 0 0 0
61 52 58 55 58 58 55 52 55 52 42 42 39 39 39 32 29 23 23 23 29 29 26 19 19 23 10 0 0 0 13 23 23 23 23 6 6 6 6 0 0 0 0
55 55 52 55 48 55 52 52 42 45 42 42 42 39 32 35 32 32 29 32 32 32 29 23 23 19 6 0 0 0 0 10 19 16 16 10 6 0 0 6 6 3 3
52 55 48 52 42 42 35 39 39 32 35 39 35 35 32 29 29 26 26 29 29 26 23 19 19 19 3 0 0 0 6 10 6 3 3 3 3 0 0 0 3 3 0
48 39 35 35 35 35 32 35 29 23 19 23 19 26 35 32 32 26 29 29 26 23 19 19 19 16 3 0 0 0 6 3 6 3 0 0 0 0 0 0 0 0 0
35 35 39 39 35 32 23 19 16 13 16 23 23 26 23 23 26 32 23 19 23 19 19 10 6 6 3 0 0 0 0 3 3 0 0 0 0 0 0 0 0 0 0
29 29 39 39 39 29 26 19 19 10 13 16 19 19 19 10 6 13 23 29 26 19 10 6 3 3 3 0 0 0 0 0 0 0 0 0 0 0 0 0 0 0 0
26 29 29 26 19 23 23 16 16 16 13 16 13 13 13 16 6 13 16 23 19 13 6 3 3 3 3 3 0 0 0 0 0 0 0 0 0 0 0 0 0 0 0
16 23 19 19 19 19 16 16 13 13 10 13 13 13 13 13 10 13 10 10 10 3 0 0 0 3 3 0 0 0 0 0 0 0 0 0 0 0 0 0 0 0 0
16 16 16 13 10 13 13 13 10 10 10 10 13 10 10 10 0 0 0 0 0 0 0 0 0 0 0 0 0 0 0 0 0 0 0 0 0 0 0 0 0 0 0
16 10 10 10 10 6 6 10 10 10 10 10 10 10 0 0 0 0 0 0 0 0 0 0 0 0 0 0 0 0 0 0 0 0 0 0 0 0 0 0 0 0 0
Height
5884 5883 5883 5882 5881 5880 5879 5878 5877 5876 5875 5874 5874 5874 5875 5876 5877 5878 5879 5882 5884 5885 5887 5889 5890 5891 5892 5894 5895 5896 5897 5897 5898 5898 5899 5899 5900 5900 5900 5900 5900 5900 5900
5882 5882 5881 5881 5879 5878 5877 5876 5875 5874 5873 5872 5872 5872 5873 5874 5875 5876 5878 5880 5882 5884 5885 5887 5888 5889 5890 5892 5893 5894 5895 5896 5897 5897 5898 5898 5899 5899 5900 5900 5900 5900 5900
5879 5879 5879 5878 5877 5876 5875 5874 5873 5872 5871 5871 5870 5870 5871 5872 5874 5875 5877 5878 5879 5881 5883 5884 5886 5887 5888 5890 5891 5893 5894 5895 5895 5896 5897 5897 5898 5898 5899 5899 5899 5899 5899
5877 5877 5876 5876 5875 5874 5873 5872 5871 5870 5869 5869 5869 5869 5869 5870 5872 5873 5874 5875 5877 5879 5881 5882 5884 5885 5886 5888 5889 5891 5892 5893 5893 5894 5895 5896 5896 5897 5897 5898 5898 5898 5898
5875 5874 5874 5873 5873 5872 5871 5870 5869 5868 5867 5867 5867 5867 5867 5868 5869 5870 5872 5873 5874 5876 5878 5879 5881 5883 5884 5885 5887 5888 5889 5890 5891 5892 5893 5894 5894 5895 5896 5896 5897 5897 5897
5873 5871 5869 5870 5870 5870 5869 5868 5867 5866 5866 5865 5865 5864 5865 5866 5867 5868 5869 5870 5871 5873 5875 5877 5878 5880 5881 5883 5884 5885 5887 5888 5889 5890 5891 5891 5892 5893 5893 5894 5894 5895 5895
5872 5870 5869 5869 5869 5868 5867 5866 5865 5864 5864 5863 5862 5862 5862 5863 5863 5864 5865 5867 5868 5870 5872 5873 5875 5877 5878 5880 5881 5882 5884 5885 5886 5887 5888 5888 5889 5890 5890 5891 5892 5892 5892
5871 5870 5869 5868 5867 5866 5865 5864 5863 5862 5862 5861 5860 5860 5860 5860 5860 5861 5862 5863 5865 5866 5868 5870 5872 5873 5875 5876 5878 5879 5880 5882 5883 5884 5884 5885 5886 5887 5888 5888 5889 5889 5889
5868 5868 5867 5866 5866 5865 5863 5862 5861 5860 5859 5859 5858 5858 5858 5858 5858 5858 5859 5860 5861 5863 5864 5866 5868 5869 5871 5872 5874 5875 5877 5878 5879 5880 5881 5882 5883 5883 5884 5884 5885 5885 5885
5866 5865 5865 5864 5864 5863 5862 5861 5859 5858 5857 5856 5856 5856 5855 5855 5855 5855 5856 5857 5857 5858 5860 5862 5864 5865 5866 5868 5870 5871 5873 5874 5875 5876 5877 5878 5878 5879 5879 5880 5880 5881 5881
5863 5862 5862 5862 5861 5860 5859 5858 5857 5856 5855 5854 5854 5853 5853 5853 5853 5853 5853 5853 5854 5854 5856 5858 5859 5860 5862 5864 5865 5866 5868 5869 5870 5871 5872 5873 5874 5874 5874 5875 5875 5875 5875
5861 5860 5860 5860 5859 5858 5857 5856 5855 5854 5853 5852 5851 5851 5851 5850 5850 5849 5850 5850 5850 5850 5851 5853 5855 5856 5857 5859 5860 5861 5863 5864 5865 5866 5867 5868 5868 5869 5869 5869 5870 5870 5870
5858 5857 5857 5857 5857 5857 5856 5854 5853 5851 5850 5849 5849 5848 5848 5847 5847 5847 5846 5846 5846 5846 5847 5849 5850 5851 5853 5854 5855 5857 5858 5859 5860 5861 5862 5862 5863 5863 5863 5863 5863 5863 5863
5855 5855 5855 5855 5854 5854 5853 5852 5850 5849 5847 5847 5846 5846 5845 5844 5844 5844 5843 5843 5842 5842 5843 5844 5846 5847 5848 5849 5851 5852 5853 5854 5854 5855 5855 5856 5857 5857 5857 5857 5857 5857 5857
5852 5853 5852 5852 5851 5851 5850 5849 5848 5846 5844 5844 5843 5842 5842 5841 5841 5840 5840 5839 5839 5838 5839 5840 5841 5842 5843 5845 5846 5847 5848 5848 5849 5849 5849 5850 5850 5850 5850 5850 5850 5850 5849
5849 5849 5849 5848 5848 5847 5847 5846 5845 5843 5842 5841 5840 5839 5839 5838 5837 5837 5837 5836 5836 5836 5836 5836 5837 5838 5839 5840 5841 5842 5842 5843 5843 5844 5844 5844 5844 5844 5843 5843 5843 5843 5842
5846 5846 5845 5845 5844 5844 5843 5842 5841 5840 5839 5838 5836 5836 5835 5834 5834 5833 5833 5832 5832 5832 5832 5832 5833 5833 5834 5836 5836 5837 5837 5837 5838 5838 5838 5838 5837 5837 5836 5835 5835 5834 5834
5842 5842 5841 5841 5841 5840 5839 5838 5837 5837 5836 5835 5833 5832 5831 5831 5830 5830 5830 5829 5829 5829 5828 5828 5829 5830 5830 5831 5831 5831 5831 5831 5831 5831 5831 5831 5830 5830 5828 5827 5827 5826 5825
5837 5837 5837 5836 5836 5835 5834 5834 5833 5832 5832 5831 5830 5829 5828 5827 5827 5826 5826 5825 5825 5825 5825 5825 5825 5825 5826 5826 5826 5826 5825 5825 5825 5825 5824 5823 5823 5822 5821 5820 5820 5818 5817
5832 5832 5832 5832 5831 5831 5830 5830 5829 5828 5827 5827 5826 5825 5824 5823 5823 5822 5822 5822 5822 5821 5821 5821 5820 5820 5820 5820 5820 5820 5819 5819 5819 5818 5817 5816 5815 5814 5813 5812 5811 5810 5808
5826 5826 5826 5826 5826 5826 5825 5825 5824 5824 5823 5822 5821 5821 5820 5819 5819 5818 5818 5817 5817 5817 5816 5816 5815 5815 5815 5815 5814 5814 5813 5813 5812 5811 5810 5809 5808 5807 5805 5804 5802 5801 5799
5821 5820 5820 5820 5820 5820 5819 5819 5819 5818 5818 5817 5816 5816 5815 5815 5814 5814 5813 5813 5812 5812 5811 5811 5810 5810 5809 5809 5808 5807 5807 5806 5805 5804 5803 5801 5800 5798 5797 5795 5794 5792 5790
5815 5815 5814 5814 5814 5814 5814 5813 5813 5813 5812 5812 5811 5811 5810 5810 5809 5809 5808 5807 5807 5806 5806 5806 5805 5804 5804 5803 5802 5801 5800 5799 5798 5797 5795 5794 5792 5790 5788 5786 5784 5782 5780
5808 5808 5808 5808 5808 5808 5807 5807 5807 5807 5807 5806 5806 5805 5805 5804 5804 5803 5802 5802 5801 5801 5800 5800 5799 5798 5798 5797 5796 5794 5793 5792 5790 5789 5787 5786 5784 5781 5779 5777 5774 5772 5770
5802 5802 5802 5802 5802 5802 5802 5802 5801 5801 5801 5801 5800 5799 5799 5798 5798 5797 5797 5796 5796 5795 5794 5793 5793 5792 5791 5790 5789 5787 5786 5784 5782 5781 5779 5777 5775 5772 5770 5767 5764 5762 5759
5795 5795 5796 5796 5796 5796 5796 5796 5796 5795 5795 5795 5795 5794 5793 5793 5792 5791 5790 5790 5789 5789 5787 5787 5786 5785 5784 5782 5781 5780 5778 5776 5774 5772 5770 5768 5765 5763 5760 5757 5754 5751 5748
Wind_Speed
12 12 13 13 13 13 13 13 13 12 12 11 10 10 10 11 10 11 11 11 11 11 11 11 11 10 10 9 8 8 7 6 5 4 4 4 3 3 2 1 0 1 2
14 14 14 14 14 14 14 14 13 12 11 10 10 9 9 10 10 10 11 11 11 12 12 11 12 11 10 10 10 9 8 8 7 6 5 5 4 4 3 2 1 1 1
14 13 14 14 14 13 13 13 13 12 11 10 10 9 9 9 9 10 12 12 12 12 12 12 12 12 11 11 11 10 10 10 9 8 7 6 5 5 5 4 3 2 2
15 13 13 14 13 12 12 12 13 12 12 11 10 9 9 10 10 11 13 13 13 13 13 13 12 13 12 12 12 12 12 11 11 10 9 8 8 7 6 5 5 4 4
15 14 13 12 12 12 12 12 12 12 11 11 10 9 9 9 10 11 13 14 14 14 14 14 14 13 13 13 13 13 13 12 12 12 11 10 9 8 8 7 7 7 7
16 15 12 12 12 12 12 12 12 12 11 11 11 10 10 10 11 12 13 14 14 15 15 15 15 14 14 15 14 14 14 14 13 13 12 12 11 10 9 9 8 8 9
15 14 13 12 12 12 12 12 11 11 11 11 10 9 10 10 11 12 13 14 15 15 16 16 16 16 16 16 15 15 15 14 14 14 14 14 14 13 12 12 11 11 12
14 14 13 13 12 12 12 12 12 11 11 11 11 10 10 10 10 11 12 13 15 16 17 17 17 17 17 17 17 17 17 16 16 16 16 15 15 16 15 15 14 14 14
15 15 14 13 13 13 12 12 12 12 12 12 11 10 10 10 10 11 11 13 15 16 17 17 18 18 19 19 19 18 18 18 18 18 18 17 17 18 18 18 18 17 17
15 15 15 14 14 13 13 13 13 13 13 12 11 11 10 10 11 12 13 14 16 17 18 18 19 19 19 19 19 19 19 20 20 20 20 19 18 19 19 20 20 20 20
15 15 14 14 14 14 15 14 13 13 13 12 12 13 12 11 11 12 14 15 16 18 19 20 20 20 19 21 21 21 21 21 21 21 21 21 21 21 21 22 21 22 22
15 15 13 14 15 15 15 15 14 14 14 13 13 13 13 12 12 13 14 15 16 18 19 20 20 19 19 21 21 22 22 22 23 23 23 23 23 23 23 23 24 24 24
15 14 15 16 16 16 15 15 15 15 15 14 13 13 13 14 13 13 14 14 15 17 18 20 20 19 19 20 21 21 22 23 24 25 25 24 24 25 25 25 25 26 26
17 17 17 17 17 17 16 16 16 16 15 14 15 14 14 13 13 13 14 14 15 16 17 19 18 19 19 20 20 21 22 23 24 24 24 24 25 26 27 27 27 27 27
18 18 18 18 18 18 17 18 18 17 16 15 15 15 15 14 14 14 14 15 15 16 16 17 18 19 19 19 20 22 22 23 23 24 24 25 25 27 28 29 29 29 29
19 19 19 19 19 19 19 19 19 19 18 17 17 16 16 16 16 15 15 15 15 15 15 17 18 19 19 19 20 21 22 23 24 24 25 25 26 28 29 29 30 31 31
20 20 19 19 20 20 20 20 20 19 18 18 18 17 17 16 16 15 15 15 15 15 15 16 17 18 18 19 20 21 23 24 24 25 26 27 28 29 29 30 31 32 32
22 21 21 21 21 21 21 20 20 20 19 19 18 18 17 17 16 16 15 15 15 15 16 16 17 18 18 20 21 23 24 25 25 27 28 28 29 30 30 28 29 30 31
23 23 23 22 22 22 22 21 21 21 20 20 19 18 17 17 17 17 17 17 17 17 16 17 17 18 18 19 21 22 24 24 25 27 27 28 28 28 28 29 29 30 31
25 24 24 23 23 23 23 23 23 22 22 21 20 20 19 19 19 18 18 18 18 18 18 18 19 20 20 21 21 22 23 24 25 26 27 28 29 29 29 29 30 30 31
25 25 25 25 24 24 23 23 23 23 22 22 21 20 19 19 19 19 19 20 20 20 20 20 20 20 21 21 22 23 24 25 26 26 27 27 28 30 30 31 31 31 32
25 25 25 25 25 25 24 24 24 23 23 22 21 21 21 21 20 20 19 20 21 21 22 22 21 21 21 22 23 24 25 26 26 26 27 28 29 30 31 32 32 33 34
26 26 26 25 25 24 24 23 24 24 23 23 23 22 22 22 22 21 21 21 21 21 21 22 23 23 23 23 24 25 25 26 27 28 29 29 30 31 32 32 33 33 34
27 26 26 25 24 24 23 23 23 23 23 23 23 23 23 23 22 22 22 23 23 23 22 22 23 24 24 24 25 26 28 28 29 29 30 31 32 32 33 34 34 34 35
27 27 26 25 25 24 23 23 23 23 23 23 23 23 22 22 22 22 22 23 23 23 24 24 25 25 25 26 27 28 29 30 30 30 31 32 33 33 34 34 34 35 36
28 27 26 25 24 23 23 23 23 23 23 23 23 22 22 22 22 22 22 23 24 24 24 24 25 25 26 27 27 28 29 30 31 32 33 34 34 35 35 35 35 35 36
Wind_Direction
300 305 311 311 311 312 314 316 313 312 312 303 296 286 269 255 243 234 227 229 238 241 244 246 247 247 249 249 247 243 241 237 237 238 237 236 227 223 223 220 312 16 31
299 303 304 306 308 308 308 310 309 308 305 303 297 287 275 258 249 237 230 231 238 242 248 248 244 244 245 247 246 244 243 241 243 242 239 236 233 232 228 229 260 324 351
297 302 302 304 306 308 306 308 307 306 304 302 298 285 270 257 250 243 240 238 239 239 243 247 244 245 245 246 247 248 246 241 241 241 239 239 239 241 244 245 253 270 281
297 299 301 302 305 306 308 309 304 302 299 296 291 286 275 263 255 247 240 238 237 239 243 244 244 246 244 246 247 248 247 246 243 242 243 246 246 246 250 249 251 258 266
296 296 298 302 303 303 305 307 303 302 300 294 290 284 280 269 258 252 247 241 240 240 242 244 244 244 244 245 247 247 248 248 247 246 248 249 249 252 253 251 255 260 262
294 299 294 301 301 302 303 304 301 299 298 294 290 288 279 271 265 257 251 245 243 241 243 242 242 242 244 245 246 246 246 246 248 249 248 249 250 255 255 256 261 264 264
294 298 299 296 298 301 305 306 303 300 299 297 293 292 287 278 271 262 255 246 242 242 242 241 241 242 243 243 244 244 243 245 248 249 250 250 252 255 258 261 264 264 265
287 290 294 295 298 301 305 305 304 304 304 303 295 292 288 281 271 262 254 249 245 245 242 242 242 244 245 245 244 244 245 247 250 251 251 253 256 257 260 262 264 264 266
284 287 291 291 295 302 306 307 305 304 305 305 302 295 290 285 273 266 257 250 247 245 243 241 243 246 248 247 245 247 248 249 251 251 252 255 259 261 261 263 265 267 268
280 282 287 287 290 298 302 302 303 304 304 300 300 300 293 288 279 267 261 259 253 247 244 240 244 247 247 247 248 249 251 252 252 253 254 257 261 264 266 268 268 270 271
281 282 286 289 292 297 300 300 300 302 302 299 293 292 292 291 285 274 268 264 260 254 248 247 246 248 249 248 248 250 253 254 255 255 256 258 261 263 266 268 270 272 273
278 279 283 289 291 295 300 300 298 300 301 298 292 289 292 290 285 280 273 270 264 256 251 249 247 249 250 249 249 250 252 254 256 257 258 260 262 264 267 268 270 272 273
280 280 284 287 288 292 297 301 299 299 299 296 292 292 293 291 286 282 277 274 269 261 254 252 249 249 251 250 250 251 254 256 257 257 259 262 265 266 268 270 271 272 272
278 281 284 286 287 289 293 297 299 298 298 298 294 293 293 292 290 286 281 278 273 267 261 257 254 253 252 252 253 255 257 259 261 260 262 264 266 269 271 272 273 273 274
277 279 282 284 286 287 291 293 296 295 295 296 295 295 294 291 291 289 284 281 277 271 265 261 257 256 255 257 259 259 260 261 264 266 265 267 269 271 271 272 273 274 275
278 280 281 282 284 287 289 293 293 292 292 293 292 294 294 292 291 288 283 279 276 272 268 265 261 260 260 259 262 263 264 264 266 268 269 270 270 273 272 273 274 275 276
277 280 279 281 284 287 288 291 293 292 293 294 293 293 294 291 288 287 287 284 280 277 275 269 265 262 263 264 265 266 267 267 267 269 271 273 273 275 276 275 275 276 277
275 278 280 282 283 286 287 289 292 293 292 292 293 293 289 288 287 285 286 285 287 284 279 271 271 270 268 267 268 268 269 269 271 273 273 274 275 275 277 277 278 279 279
274 277 280 283 283 283 285 287 289 291 291 290 291 290 287 286 285 284 283 285 285 285 281 275 274 272 270 271 271 273 274 274 276 276 277 278 278 279 281 282 282 282 282
272 275 278 280 282 282 283 284 286 289 290 291 291 290 288 286 285 285 284 282 284 285 280 279 278 276 274 275 275 275 276 277 278 278 279 281 280 282 284 283 282 282 283
271 273 276 278 280 281 281 282 284 287 288 289 290 290 290 290 287 284 282 281 281 284 282 282 281 280 279 280 280 278 277 279 281 282 284 283 283 283 283 284 284 284 285
272 274 276 277 278 279 279 280 282 284 286 286 287 288 289 289 289 288 284 282 282 281 281 280 281 281 280 280 281 281 282 283 284 284 286 285 285 285 285 286 287 287 288
272 274 277 277 276 278 278 280 281 282 283 283 285 286 286 286 286 285 283 283 284 283 282 281 281 281 281 281 281 283 285 285 285 286 286 287 288 289 288 289 291 291 291
272 274 276 277 277 277 278 280 279 280 280 283 285 285 285 285 284 283 283 282 283 284 282 280 281 283 284 284 283 283 284 283 284 287 288 290 292 291 291 292 291 291 291
272 274 275 276 276 276 276 278 279 279 280 282 284 284 283 281 282 282 281 283 283 282 280 279 280 282 283 284 284 285 286 286 288 288 288 290 291 291 292 293 293 292 292
270 272 274 274 274 273 274 276 278 279 279 280 281 281 281 280 280 280 280 282 283 282 280 279 281 283 284 283 283 284 285 286 287 288 289 290 290 290 291 293 293 293 293